Location: Nairn
(57.5833°N, 3.8667°W)
Time: 16:09:00
(UTC+00:00)

Explorer 7 - Visible Passes

Search period start: 26 November 2020 00:00
Search period end: 06 December 2020 00:00
Orbit: 484 x 678 km, 50.3° (Epoch: 25 November)

Date Brightness Start Highest point End Pass type
(mag) Time Alt. Az. Time Alt. Az. Time Alt. Az.
26 Nov 9.2 04:28:24 19° SE 04:28:24 19° SE 04:30:11 10° ESE visible
26 Nov 8.2 06:04:42 20° SW 06:06:42 30° S 06:10:13 10° ESE visible
27 Nov 9.0 04:32:56 21° SE 04:32:56 21° SE 04:34:48 10° ESE visible
27 Nov 8.2 06:09:14 20° SW 06:11:10 29° S 06:14:39 10° SE visible
28 Nov 8.9 04:37:27 22° SE 04:37:27 22° SE 04:39:23 10° ESE visible
28 Nov 8.3 06:13:46 19° SW 06:15:38 27° SSW 06:19:02 10° SE visible
29 Nov 8.9 04:41:58 22° SE 04:41:58 22° SE 04:43:54 10° ESE visible
29 Nov 8.4 06:18:16 18° SW 06:20:03 24° SSW 06:23:19 10° SE visible
30 Nov 8.9 04:46:28 22° SE 04:46:28 22° SE 04:48:23 10° ESE visible
30 Nov 8.6 06:22:47 16° SW 06:24:27 20° SSW 06:27:28 10° SSE visible
01 Dec 8.9 04:50:59 21° SSE 04:50:59 21° SSE 04:52:48 10° SE visible
01 Dec 8.8 06:27:18 14° SW 06:28:49 17° SSW 06:31:26 10° SSE visible
02 Dec 9.0 04:55:32 19° SSE 04:55:32 19° SSE 04:57:08 10° SE visible
02 Dec 9.0 06:31:50 12° SW 06:33:08 13° SW 06:35:04 10° S visible
03 Dec 9.1 05:00:06 17° SSE 05:00:06 17° SSE 05:01:23 10° SE visible
04 Dec 9.3 05:04:43 14° SSE 05:04:43 14° SSE 05:05:30 10° SSE visible
05 Dec 9.6 05:09:23 10° S 05:09:23 10° S 05:09:24 10° S visible
